This is the latest recevied weather packets stored in our database for station/object HA2SKA-1. If no packets are shown the sender has not sent any weather packets the latest 10 day(s).
| Time | Temp. | Humidity | Pressure | Rain* | Wind** | Luminosity | Snow |
|---|---|---|---|---|---|---|---|
| 1788177011 | 36.11° C | 37% | 1016.5 hPa | - | - | - | - |
| 1788176111 | 35.56° C | 39% | 1016.5 hPa | - | - | - | - |
| 1788175211 | 36.67° C | 36% | 1016.7 hPa | - | - | - | - |
| 1788174311 | 35.56° C | 38% | 1016.7 hPa | - | - | - | - |
| 1788173411 | 36.11° C | 38% | 1017 hPa | - | - | - | - |
| 1788172511 | 35.56° C | 39% | 1017 hPa | - | - | - | - |
| 1788171611 | 34.44° C | 39% | 1017 hPa | - | - | - | - |
| 1788170711 | 35° C | 39% | 1017.2 hPa | - | - | - | - |
| 1788169811 | 33.89° C | 42% | 1017.4 hPa | - | - | - | - |
| 1788168911 | 33.89° C | 43% | 1017.5 hPa | - | - | - | - |
| 1788168010 | 33.89° C | 42% | 1017.6 hPa | - | - | - | - |
| 1788167110 | 33.89° C | 43% | 1017.5 hPa | - | - | - | - |
| 1788166220 | 33.89° C | 42% | 1017.5 hPa | - | - | - | - |
| 1788165310 | 33.89° C | 43% | 1017.6 hPa | - | - | - | - |
| 1788164410 | 33.33° C | 44% | 1017.5 hPa | - | - | - | - |
| 1788163510 | 32.78° C | 43% | 1017.4 hPa | - | - | - | - |
| 1788162610 | 32.78° C | 44% | 1017.5 hPa | - | - | - | - |
| 1788161710 | 32.78° C | 47% | 1017.4 hPa | - | - | - | - |
| 1788160810 | 31.67° C | 48% | 1017.4 hPa | - | - | - | - |
| 1788159910 | 31.11° C | 50% | 1017.4 hPa | - | - | - | - |
| 1788159009 | 31.11° C | 52% | 1017.3 hPa | - | - | - | - |
| 1788158109 | 29.44° C | 65% | 1017.4 hPa | - | - | - | - |
| 1788157209 | 28.89° C | 73% | 1017.4 hPa | - | - | - | - |
| 1788156309 | 26.67° C | 83% | 1017.4 hPa | - | - | - | - |
| 1788155409 | 25.56° C | 86% | 1017.4 hPa | - | - | - | - |
* Rain since midnight (hover to see other rain measurements)
** Current wind speed in m/s (hover to see current wind gust speed)